Total_Precipitation_Accumulation
2.81 2.81 2.71 2.65 2.45 2.51 2.85 3.08 2.91 2.89 2.79 2.60 2.35 2.16 2.02 1.95 1.88 2.01 2.15 2.30 2.30 2.34 2.57 2.74 2.58 2.33 2.25 2.11 1.92 1.69 1.59 1.57 1.42 1.17 1.03 0.94 0.84 0.84 0.87 0.91 0.90 0.79 0.76
3.21 3.35 3.22 3.07 2.68 2.57 2.63 2.88 2.93 3.13 3.06 2.88 2.30 2.18 2.13 2.12 2.15 2.09 2.25 2.76 2.79 2.43 2.49 2.81 2.96 2.90 2.76 2.59 2.36 2.11 1.94 1.84 1.58 1.29 1.19 1.10 0.97 0.89 0.98 1.06 1.07 0.88 0.74
3.43 3.39 3.21 2.86 2.55 2.53 2.73 2.72 2.71 2.95 2.78 2.65 2.53 2.55 2.49 2.38 2.27 2.23 2.34 2.81 2.81 2.46 2.34 2.44 2.73 2.98 3.10 3.19 3.08 2.96 2.68 2.31 1.93 1.55 1.32 1.15 1.02 0.91 0.93 1.07 1.14 1.03 0.85
2.99 3.04 2.74 2.43 2.46 2.61 2.73 2.89 2.77 2.83 2.86 2.93 2.99 2.94 2.77 2.61 2.19 2.04 1.97 2.11 2.39 2.10 2.25 2.50 2.57 2.67 3.10 3.56 3.72 3.92 3.60 2.92 2.30 1.83 1.53 1.29 1.12 0.97 0.88 0.95 1.06 1.06 0.93
2.32 2.51 2.44 2.37 2.36 2.56 2.60 2.41 2.77 3.00 3.01 3.03 2.79 2.83 2.46 2.32 2.08 1.83 1.81 1.77 1.93 2.06 2.08 2.16 2.30 2.37 2.84 3.56 4.15 4.64 4.52 3.78 2.99 2.48 2.16 1.78 1.52 1.22 1.03 0.99 1.00 1.02 0.93
2.15 2.40 2.35 2.31 2.32 2.50 2.60 2.69 2.98 3.10 2.79 2.72 2.46 2.36 2.08 1.70 1.66 1.65 1.54 1.59 1.72 1.70 1.86 2.04 2.29 2.13 2.61 3.16 3.81 4.52 5.03 4.78 3.92 3.28 3.00 2.68 2.37 1.88 1.40 1.16 1.06 1.04 0.98
2.27 2.50 2.34 2.41 2.25 2.32 2.34 2.42 2.67 2.80 2.42 2.51 2.98 2.57 1.96 1.58 1.57 1.47 1.47 1.55 1.60 1.67 1.91 2.22 2.42 2.48 2.53 2.51 2.81 3.56 4.59 5.12 4.88 4.17 3.75 3.44 3.12 2.57 1.95 1.59 1.36 1.19 1.11
2.16 2.19 2.33 2.19 2.14 2.29 2.28 2.32 2.54 2.52 2.22 2.42 2.94 3.05 2.50 2.09 1.77 1.41 1.39 1.44 1.59 1.81 1.92 1.98 2.39 2.70 2.69 3.01 2.66 2.68 3.48 4.42 5.00 4.86 4.44 3.85 3.37 2.90 2.41 2.11 1.79 1.53 1.34
1.90 1.94 1.94 2.01 2.12 1.92 2.07 2.26 2.40 2.48 2.37 2.30 2.57 3.02 2.80 2.44 2.09 1.69 1.54 1.63 1.84 2.00 2.06 2.20 2.30 2.52 2.74 3.21 3.11 2.87 2.87 3.21 4.16 5.03 5.12 4.45 3.57 2.98 2.74 2.61 2.46 2.05 1.69
1.71 1.74 1.74 1.90 1.98 1.92 2.17 1.89 2.01 2.29 2.51 2.32 2.34 2.39 2.46 2.68 2.65 2.22 1.84 1.71 1.82 1.95 2.03 2.04 2.11 2.39 2.65 3.01 3.32 3.02 2.72 2.57 2.95 3.93 4.75 4.76 4.09 3.26 2.82 2.87 3.24 3.03 2.41
1.68 1.53 1.63 1.80 1.91 1.96 2.05 1.98 2.09 2.04 2.12 2.18 2.27 2.27 2.41 2.65 2.50 2.40 2.21 1.98 1.87 1.70 1.75 1.87 2.06 2.31 2.48 2.76 3.13 2.85 2.70 2.44 2.36 2.69 3.39 3.96 4.11 3.83 3.45 3.37 3.85 4.18 3.92
1.74 1.56 1.59 1.81 1.88 1.94 1.97 2.01 2.01 1.91 2.00 2.12 2.16 2.20 2.39 2.44 2.37 2.46 2.31 2.13 1.99 1.71 1.67 1.75 1.97 2.12 2.21 2.35 2.18 2.18 2.18 2.27 2.19 2.08 2.21 2.59 3.09 3.47 3.59 3.82 4.32 4.84 5.13
1.63 1.62 1.58 1.86 1.98 1.97 1.94 2.02 2.01 1.98 2.08 2.17 2.18 2.22 2.28 2.25 2.28 2.47 2.52 2.25 2.06 1.84 1.90 1.86 1.86 2.00 1.99 2.21 2.15 1.97 1.85 1.95 1.86 1.75 1.71 1.82 2.13 2.58 2.99 3.34 3.76 4.29 4.80
1.55 1.77 1.88 1.91 1.91 1.94 1.94 2.18 2.04 2.06 2.12 2.15 2.06 2.39 2.35 2.20 2.44 2.68 2.85 2.90 2.54 2.27 2.24 2.04 1.86 1.85 1.87 1.95 2.00 1.99 1.86 1.72 1.55 1.50 1.53 1.60 1.69 1.95 2.26 2.56 2.85 3.11 3.38
1.57 1.77 1.94 2.04 1.97 1.94 2.03 2.24 2.21 2.25 2.36 2.25 2.23 2.47 2.40 2.29 2.38 2.50 2.79 3.09 3.10 2.79 2.63 2.40 2.15 2.01 1.92 1.93 2.04 1.87 1.85 1.86 1.62 1.47 1.50 1.53 1.61 1.70 1.74 1.76 1.87 1.97 2.15
1.73 1.82 1.82 1.86 1.85 1.83 1.95 2.28 2.29 2.33 2.51 2.45 2.39 2.42 2.42 2.31 2.42 2.43 2.57 2.93 3.22 3.22 2.89 2.28 2.21 2.10 2.00 1.81 1.92 1.74 1.76 1.90 1.67 1.50 1.40 1.32 1.33 1.37 1.40 1.49 1.62 1.69 1.77
1.81 1.80 1.80 1.82 1.77 1.68 1.77 1.97 2.08 2.27 2.43 2.47 2.41 2.43 2.43 2.58 2.63 2.52 2.61 2.74 2.97 3.16 2.81 2.29 2.36 2.50 2.43 2.20 2.00 1.81 1.69 1.65 1.64 1.62 1.33 1.25 1.24 1.22 1.29 1.38 1.46 1.53 1.62
1.87 1.89 1.88 1.85 1.70 1.68 1.77 1.87 2.00 2.18 2.31 2.39 2.50 2.60 2.39 2.52 2.64 2.58 2.59 2.61 2.74 3.02 2.90 2.72 2.65 2.72 2.65 2.40 2.14 1.86 1.55 1.41 1.46 1.69 1.41 1.24 1.17 1.19 1.24 1.28 1.26 1.29 1.30
1.87 1.97 2.00 1.92 1.84 1.85 1.91 1.96 2.02 2.16 2.26 2.32 2.43 2.44 2.40 2.54 2.43 2.50 2.60 2.56 2.57 2.62 2.73 2.69 2.54 2.59 2.53 2.35 2.16 1.88 1.63 1.59 1.43 1.46 1.38 1.26 1.19 1.17 1.18 1.15 1.12 1.12 1.15
1.78 1.81 1.80 1.87 1.92 1.96 1.97 1.96 1.96 2.00 2.05 2.11 2.10 2.01 1.96 2.01 2.08 2.29 2.29 2.31 2.40 2.47 2.55 2.47 2.42 2.48 2.48 2.51 2.35 2.06 1.90 1.73 1.54 1.32 1.31 1.29 1.28 1.22 1.18 1.12 1.03 1.03 1.08
1.60 1.77 1.80 1.90 1.99 1.96 1.84 1.87 1.88 1.81 1.95 1.90 1.76 1.72 1.72 1.82 1.84 1.93 1.85 1.96 2.16 2.25 2.29 2.35 2.42 2.57 2.56 2.67 2.54 2.26 2.13 1.98 1.70 1.45 1.37 1.28 1.26 1.20 1.20 1.20 1.16 1.07 1.02
1.65 1.75 1.81 1.93 1.99 1.84 1.88 1.91 1.92 1.90 1.92 1.86 1.81 1.74 1.61 1.61 1.60 1.62 1.62 1.68 1.84 1.99 2.16 2.31 2.37 2.46 2.52 2.49 2.47 2.33 2.22 2.04 1.76 1.58 1.68 1.64 1.43 1.40 1.52 1.46 1.36 1.12 0.98
1.74 1.82 1.95 2.02 1.98 2.07 2.00 1.83 1.83 1.79 1.82 1.84 1.87 1.85 1.56 1.38 1.51 1.46 1.57 1.55 1.53 1.60 1.71 1.87 1.98 2.11 2.32 2.41 2.50 2.41 2.40 2.27 1.96 1.70 1.63 1.52 1.43 1.46 1.64 1.77 1.52 1.10 1.00
1.92 2.02 2.06 1.98 1.95 2.02 1.98 1.66 1.54 1.44 1.54 1.64 1.71 1.78 1.77 1.66 1.61 1.62 1.66 1.66 1.58 1.56 1.66 1.64 1.68 1.90 2.25 2.54 2.60 2.54 2.57 2.43 2.12 1.77 1.65 1.56 1.41 1.39 1.27 1.28 1.35 1.10 0.92
2.18 2.24 2.26 2.21 2.08 2.08 1.93 1.57 1.38 1.29 1.43 1.52 1.58 1.57 1.59 1.52 1.55 1.45 1.45 1.51 1.51 1.47 1.47 1.46 1.48 1.61 1.88 2.25 2.46 2.49 2.56 2.46 2.23 1.91 1.70 1.64 1.44 1.35 1.24 1.12 1.15 1.21 1.04
2.36 2.37 2.27 2.14 2.04 2.03 1.98 1.64 1.43 1.34 1.47 1.55 1.65 1.63 1.61 1.55 1.52 1.35 1.28 1.35 1.32 1.34 1.43 1.42 1.38 1.37 1.47 1.76 2.10 2.09 2.16 2.30 2.08 1.84 1.49 1.41 1.35 1.29 1.27 1.10 0.99 1.02 1.04